Location: Sommers-Bausch Observatory
(40.0037°N, 105.2635°W)
Time: 05:25:09
(UTC-06:00)

Amateur Radio Satellites - All Passes

Search period start: 25 August 2016 04:55
Search period end: 26 August 2016 04:55
Location: Sommers-Bausch Observatory, 40.0037°N, 105.2635°W

Satellite Date Start Highest point End Downlink Frequencies (MHz)
Time Altitude Azimuth
HORYU 2 25 Aug 04:56:47 04:58:38 12° 91° (E) 05:00:28 437.375
MOZHAYETS 4 25 Aug 05:02:19 05:05:51 22° 266° (W) 05:09:23
PHONESAT 2.4 25 Aug 05:13:13 05:16:13 84° 354° (N) 05:19:14 2401.200-2431.200
KKS-1 25 Aug 05:18:47 05:21:48 18° 267° (W) 05:24:50 437.445
ITAMSAT 1 25 Aug 05:30:12 05:33:35 18° 298° (WNW) 05:36:58 435.822/435.867
AO-85 25 Aug 05:37:47 05:42:20 29° 113° (ESE) 05:46:43 145.980
BRITE-PL 25 Aug 05:41:02 05:45:15 21° 91° (E) 05:49:24 437.365/2234.400
RS-15 25 Aug 05:46:58 05:56:12 25° 340° (NNW) 06:05:44 29.354- 29.394
AO-7 25 Aug 05:57:26 06:05:14 47° 297° (WNW) 06:13:00 29.400- 29.500
Cubesat XI-IV 25 Aug 05:58:12 05:59:27 11° 89° (E) 06:00:43 437.490
STARS 25 Aug 06:04:28 06:06:02 12° 269° (W) 06:07:37 437.465
YUBILEINY 25 Aug 06:06:45 06:14:29 36° 85° (E) 06:22:14 435.215
CUTE-I 25 Aug 06:09:30 06:12:29 15° 91° (E) 06:15:27 437.470
CUBESAT XI-V 25 Aug 06:13:38 06:17:40 30° 264° (W) 06:21:46 437.345
NOAA 15 25 Aug 06:19:29 06:23:48 25° 95° (E) 06:28:05 137.62
Cosmos 2504 25 Aug 06:21:08 06:24:26 13° 77° (ENE) 06:27:40 435.465 / 435.565
STRAND 1 25 Aug 06:22:57 06:26:40 21° 64° (ENE) 06:30:22 437.568
NOAA 18 25 Aug 06:24:07 06:27:52 19° 93° (E) 06:31:36 137.9125
HORYU 2 25 Aug 06:31:11 06:35:32 57° 287° (WNW) 06:39:51 437.375
Cosmos 2491 25 Aug 06:48:29 06:57:07 61° 269° (W) 07:05:44 435.465 / 435.565
LilacSat-2 25 Aug 06:48:58 06:52:25 33° 97° (E) 06:55:49 437.200
PHONESAT 2.4 25 Aug 06:49:37 06:52:37 81° 191° (S) 06:55:37 2401.200-2431.200
GOMX 1 25 Aug 07:09:29 07:14:54 62° 100° (E) 07:20:04 467.674
AO-85 25 Aug 07:17:44 07:22:41 40° 308° (NW) 07:27:25 145.980
BRITE-PL 25 Aug 07:18:25 07:23:59 55° 287° (WNW) 07:29:27 437.365/2234.400
HO-68 25 Aug 07:20:45 07:22:36 11° 87° (E) 07:24:25 435.675
DOVE 4 25 Aug 07:31:06 07:36:00 44° 98° (E) 07:40:37 437.250
Cubesat XI-IV 25 Aug 07:34:49 07:40:10 85° 286° (WNW) 07:45:29 437.490
CUTE-I 25 Aug 07:47:42 07:52:58 65° 287° (WNW) 07:58:13 437.470
NOAA 15 25 Aug 07:58:43 08:03:40 40° 291° (WNW) 08:08:36 137.62
STRAND 1 25 Aug 08:00:34 08:05:29 47° 260° (W) 08:10:25 437.568
YUBILEINY 25 Aug 08:02:29 08:10:57 49° 284° (WNW) 08:19:29 435.215
NOAA 18 25 Aug 08:03:31 08:08:52 55° 289° (WNW) 08:14:10 137.9125
RS-15 25 Aug 08:05:32 08:14:47 23° 17° (NNE) 08:24:04 29.354- 29.394
Cosmos 2504 25 Aug 08:07:59 08:16:32 76° 94° (E) 08:24:32 435.465 / 435.565
SEEDS 25 Aug 08:14:56 08:17:36 16° 92° (E) 08:20:16 437.485
LilacSat-2 25 Aug 08:24:05 08:26:26 16° 293° (WNW) 08:28:46 437.200
PHONESAT 2.4 25 Aug 08:26:16 08:28:45 24° 207° (SSW) 08:31:13 2401.200-2431.200
CANX-2 25 Aug 08:29:33 08:33:32 40° 98° (E) 08:37:31 2200.000
SO-50 25 Aug 08:31:53 08:35:35 23° 45° (NE) 08:39:12 436.795
CINEMA 3 25 Aug 08:32:50 08:37:19 51° 99° (E) 08:41:33 145.822/145.860
CUTE 1.7 + AOD 2 25 Aug 08:36:13 08:40:13 41° 98° (E) 08:44:14 437.475
PRISM 25 Aug 08:46:54 08:50:55 63° 74° (ENE) 08:54:59 437.425
GOMX 1 25 Aug 08:48:48 08:52:23 18° 297° (WNW) 08:55:53 467.674
AIST 1 25 Aug 08:53:39 08:55:49 14° 85° (E) 08:58:00
AAUSAT CUBESAT 2 25 Aug 08:53:43 08:57:07 24° 95° (E) 09:00:30 437.432
COMPASS 1 25 Aug 08:58:35 09:02:25 35° 97° (E) 09:06:15 437.405
ISS 25 Aug 09:00:57 09:03:07 17° 131° (SE) 09:05:17 145.825
HO-68 25 Aug 09:04:13 09:11:24 74° 104° (ESE) 09:18:32 435.675
DOVE 4 25 Aug 09:09:30 09:13:18 21° 295° (WNW) 09:16:57 437.250
CUBEBUG 2 25 Aug 09:09:59 09:13:52 33° 97° (E) 09:17:39 437.445
Oscar 11 25 Aug 09:12:05 09:14:38 15° 92° (E) 09:17:10 145.826/435.025
UWE-3 25 Aug 09:13:53 09:17:19 24° 95° (E) 09:20:42 435.000/436.395/437.385
FUNcube-1 25 Aug 09:15:48 09:18:09 15° 92° (E) 09:20:29 145.935
Cubesat XI-IV 25 Aug 09:17:47 09:19:23 11° 302° (WNW) 09:21:00 437.490
ANTELSAT 25 Aug 09:23:14 09:26:11 17° 65° (ENE) 09:29:06 437.575/2403.000
CUSAT 1 25 Aug 09:27:34 09:30:59 15° 68° (ENE) 09:34:43 437.405
BEESAT 3 25 Aug 09:29:44 09:30:37 11° 108° (ESE) 09:31:31 437.485
ZACube-1 25 Aug 09:34:44 09:38:16 26° 96° (E) 09:41:44 437.345
SEEDS 25 Aug 09:49:32 09:53:27 39° 288° (WNW) 09:57:22 437.485
TIGRISAT 25 Aug 09:53:38 09:57:44 32° 70° (ENE) 10:01:48 435.000
Cosmos 2504 25 Aug 10:04:26 10:10:37 22° 292° (WNW) 10:16:33 435.465 / 435.565
CANX-2 25 Aug 10:06:19 10:09:04 17° 294° (WNW) 10:11:50 2200.000
CINEMA 3 25 Aug 10:11:18 10:13:56 15° 297° (WNW) 10:16:32 145.822/145.860
SO-50 25 Aug 10:11:55 10:16:15 43° 244° (WSW) 10:20:28 436.795
CUTE 1.7 + AOD 2 25 Aug 10:13:02 10:15:44 17° 294° (WNW) 10:18:25 437.475
RS-15 25 Aug 10:19:04 10:31:09 54° 47° (NE) 10:43:00 29.354- 29.394
UNISAT 6 25 Aug 10:20:46 10:25:22 68° 74° (ENE) 10:29:54 437.425
AIST 1 25 Aug 10:28:47 10:32:56 46° 281° (W) 10:37:11
AAUSAT CUBESAT 2 25 Aug 10:29:03 10:32:31 26° 290° (WNW) 10:36:00 437.432
QB50P2 25 Aug 10:33:51 10:36:05 14° 64° (ENE) 10:38:20 145.880/145.840
COMPASS 1 25 Aug 10:34:48 10:37:43 19° 293° (WNW) 10:40:39 437.405
DUCHIFAT 1 25 Aug 10:35:50 10:37:30 12° 63° (ENE) 10:39:09 145.980
ISS 25 Aug 10:36:05 10:39:18 51° 327° (NNW) 10:42:31 145.825
POLYITAN 1 25 Aug 10:36:19 10:38:37 14° 64° (ENE) 10:40:55 437.675
BEESAT 2 25 Aug 10:40:28 10:44:04 35° 115° (ESE) 10:47:42 435.950
HUMSAT D 25 Aug 10:44:59 10:48:40 32° 97° (E) 10:52:20 437.325/437.525
Oscar 11 25 Aug 10:46:52 10:50:58 44° 287° (WNW) 10:55:03 145.826/435.025
NANOSAT C BR1 25 Aug 10:46:59 10:49:47 17° 66° (ENE) 10:52:35 145.865
CUBEBUG 2 25 Aug 10:47:11 10:50:15 19° 293° (WNW) 10:53:14 437.445
UWE-3 25 Aug 10:50:14 10:53:44 26° 291° (WNW) 10:57:09 435.000/436.395/437.385
FUNcube-1 25 Aug 10:50:41 10:54:36 41° 288° (WNW) 10:58:29 145.935
HO-68 25 Aug 10:53:12 10:58:23 22° 303° (WNW) 11:03:33 435.675
DELFI C3 25 Aug 10:55:25 10:59:26 82° 283° (WNW) 11:03:26 145.870
ANTELSAT 25 Aug 10:58:01 11:02:30 48° 260° (W) 11:06:56 437.575/2403.000
BEESAT 3 25 Aug 11:03:53 11:07:44 60° 303° (WNW) 11:11:39 437.485
CUSAT 1 25 Aug 11:07:12 11:13:25 86° 81° (E) 11:21:03 437.405
ZACube-1 25 Aug 11:11:06 11:14:27 24° 291° (WNW) 11:17:45 437.345
AUBIESAT-1 25 Aug 11:20:24 11:22:42 15° 96° (E) 11:24:54 437.475
M-CUBED/EXP-1 PRIME 25 Aug 11:23:05 11:26:11 20° 98° (E) 11:29:06 437.505
Cosmos 2499 25 Aug 11:24:44 11:29:41 18° 81° (E) 11:34:26 435.465 / 435.565
QB50P1 25 Aug 11:27:49 11:31:57 51° 73° (ENE) 11:36:07 145.935-145.965
TIGRISAT 25 Aug 11:30:41 11:34:26 24° 265° (W) 11:38:08 435.000
POPSAT HIP 1 25 Aug 11:37:26 11:41:41 65° 75° (ENE) 11:45:57 437.405
DANDE 25 Aug 11:38:20 11:43:27 63° 80° (E) 11:50:11 436.750
BUGSAT 1 25 Aug 11:40:06 11:43:38 26° 69° (ENE) 11:47:12 437.445
VELOX 1 25 Aug 11:49:52 11:52:23 15° 92° (E) 11:54:53 145.980
CUBEBUG 1 25 Aug 11:58:12 12:01:43 23° 95° (E) 12:05:12 437.445
UNISAT 6 25 Aug 12:01:01 12:02:28 11° 270° (W) 12:03:54 437.425
QB50P2 25 Aug 12:07:16 12:11:26 52° 260° (W) 12:15:39 145.880/145.840
DUCHIFAT 1 25 Aug 12:08:26 12:12:39 61° 259° (W) 12:16:53 145.980
POLYITAN 1 25 Aug 12:09:48 12:13:59 51° 260° (W) 12:18:11 437.675
JAS-2 25 Aug 12:11:33 12:16:39 63° 73° (ENE) 12:22:01 435.910
ISS 25 Aug 12:14:28 12:16:22 14° 345° (NNW) 12:18:16 145.825
DX 1 25 Aug 12:15:46 12:18:53 19° 94° (E) 12:21:59 434.975-435.025
GONETS M04 25 Aug 12:16:44 12:25:09 56° 90° (E) 12:33:41
ESTCUBE 1 25 Aug 12:17:39 12:22:08 58° 100° (E) 12:26:36 437.505/2401.250
BEESAT 2 25 Aug 12:18:54 12:21:59 21° 312° (NW) 12:25:05 435.950
NANOSAT C BR1 25 Aug 12:21:10 12:25:11 40° 261° (W) 12:29:14 145.865
HUMSAT D 25 Aug 12:21:10 12:24:04 19° 293° (WNW) 12:26:57 437.325/437.525
Oscar 19 25 Aug 12:21:21 12:24:33 17° 62° (ENE) 12:27:48 437.125/150
SPROUT 25 Aug 12:28:32 12:31:39 19° 94° (E) 12:34:44 437.525
AIST 2 25 Aug 12:29:55 12:33:02 21° 112° (ESE) 12:36:10 435.215
50 SAT 25 Aug 12:30:45 12:34:12 40° 99° (E) 12:37:39 437.505
RS-15 25 Aug 12:32:00 12:43:39 51° 250° (WSW) 12:55:03 29.354- 29.394
PCSat 25 Aug 12:33:40 12:38:59 61° 114° (ESE) 12:44:20 145.827
AISAT 25 Aug 12:37:04 12:41:28 51° 100° (E) 12:45:47 437.250
CUSAT 1 25 Aug 12:51:12 12:55:00 16° 273° (W) 12:59:10 437.405
AUBIESAT-1 25 Aug 12:53:31 12:57:25 41° 294° (WNW) 13:01:02 437.475
M-CUBED/EXP-1 PRIME 25 Aug 12:57:02 13:00:47 31° 296° (WNW) 13:04:16 437.505
UKube-1 25 Aug 13:00:29 13:04:40 45° 99° (E) 13:08:49 .
QB50P1 25 Aug 13:05:58 13:08:00 13° 269° (W) 13:10:03 145.935-145.965
Gurwin Techsat 1B 25 Aug 13:09:50 13:13:52 23° 64° (ENE) 13:17:55 435.225
Cosmos 2499 25 Aug 13:13:34 13:21:54 83° 277° (W) 13:29:38 435.465 / 435.565
BUGSAT 1 25 Aug 13:15:23 13:18:56 25° 264° (W) 13:22:30 437.445
POPSAT HIP 1 25 Aug 13:17:20 13:17:52 10° 270° (W) 13:18:23 437.405
AO-7 25 Aug 13:17:43 13:19:54 11° 43° (NE) 13:22:07 29.400- 29.500
DANDE 25 Aug 13:22:29 13:26:04 18° 269° (W) 13:30:12 436.750
VELOX 1 25 Aug 13:24:47 13:29:07 49° 287° (WNW) 13:33:24 145.980
ITAMSAT 1 25 Aug 13:32:12 13:33:17 11° 58° (ENE) 13:34:22 435.822/435.867
CUBEBUG 1 25 Aug 13:34:05 13:38:01 31° 290° (WNW) 13:41:54 437.445
DX 1 25 Aug 13:51:08 13:55:11 37° 289° (WNW) 13:59:13 434.975-435.025
ISS 25 Aug 13:52:45 13:53:57 12° 6° (N) 13:55:09 145.825
ESTCUBE 1 25 Aug 13:56:03 13:58:27 14° 297° (WNW) 14:00:50 437.505/2401.250
Oscar 19 25 Aug 13:58:15 14:03:21 61° 259° (WSW) 14:08:30 437.125/150
JAS-2 25 Aug 13:59:50 14:02:23 14° 271° (W) 14:04:58 435.910
SPROUT 25 Aug 14:03:47 14:07:40 34° 289° (WNW) 14:11:31 437.525
50 SAT 25 Aug 14:05:49 14:07:25 12° 294° (WNW) 14:09:00 437.505
AIST 2 25 Aug 14:07:32 14:11:18 34° 308° (NW) 14:15:06 435.215
AO-85 25 Aug 14:10:43 14:13:47 19° 44° (NE) 14:16:43 145.980
GONETS M04 25 Aug 14:14:51 14:22:22 32° 290° (WNW) 14:30:00
AISAT 25 Aug 14:14:53 14:17:29 15° 296° (WNW) 14:20:03 437.250
O/OREOS (USA 219) 25 Aug 14:15:37 14:19:45 37° 105° (ESE) 14:23:55 437.305
PCSat 25 Aug 14:18:42 14:22:48 21° 313° (NW) 14:26:56 145.827
SWISSCUBE 25 Aug 14:27:30 14:30:48 18° 93° (E) 14:34:05 437.505
TISAT 1 25 Aug 14:31:52 14:36:05 79° 286° (WNW) 14:40:16 437.305
UKube-1 25 Aug 14:37:38 14:40:20 16° 296° (WNW) 14:43:01 .
BEESAT 25 Aug 14:44:28 14:48:22 25° 95° (E) 14:52:14 436.000
Gurwin Techsat 1B 25 Aug 14:48:25 14:53:30 46° 261° (W) 14:58:36 435.225
AO-7 25 Aug 15:02:46 15:10:44 51° 64° (ENE) 15:18:42 29.400- 29.500
ITAMSAT 1 25 Aug 15:06:42 15:11:54 83° 75° (ENE) 15:17:06 435.822/435.867
Cosmos 2499 25 Aug 15:11:43 15:16:04 15° 296° (WNW) 15:20:17 435.465 / 435.565
ISS 25 Aug 15:28:29 15:31:18 26° 26° (NNE) 15:34:06 145.825
ITUPSAT 1 25 Aug 15:29:35 15:34:21 72° 103° (ESE) 15:39:06 437.325
AO-85 25 Aug 15:50:29 15:54:31 45° 244° (WSW) 15:58:16 145.980
HORYU 2 25 Aug 15:54:52 15:56:34 12° 62° (ENE) 15:58:17 437.375
O/OREOS (USA 219) 25 Aug 15:55:51 15:59:17 21° 303° (WNW) 16:02:44 437.305
SWISSCUBE 25 Aug 16:04:16 16:08:47 44° 289° (WNW) 16:13:18 437.505
STARS 25 Aug 16:17:20 16:18:45 11° 91° (E) 16:20:12 437.465
YUBILEINY 25 Aug 16:18:29 16:23:36 16° 61° (ENE) 16:28:40 435.215
BEESAT 25 Aug 16:21:55 16:26:10 33° 291° (WNW) 16:30:24 436.000
ITAMSAT 1 25 Aug 16:50:42 16:51:58 11° 271° (W) 16:53:14 435.822/435.867
BRITE-PL 25 Aug 16:51:41 16:55:03 19° 63° (ENE) 16:58:37 437.365/2234.400
AO-7 25 Aug 16:56:11 17:03:40 36° 262° (W) 17:11:11 29.400- 29.500
MOZHAYETS 4 25 Aug 16:56:31 17:01:07 90° 264° (W) 17:05:41
ISS 25 Aug 17:04:45 17:07:52 42° 223° (SW) 17:10:59 145.825
KKS-1 25 Aug 17:08:30 17:13:00 88° 284° (WNW) 17:17:27 437.445
ITUPSAT 1 25 Aug 17:09:29 17:11:34 13° 299° (WNW) 17:13:39 437.325
Cubesat XI-IV 25 Aug 17:18:15 17:21:57 19° 63° (ENE) 17:25:38 437.490
HORYU 2 25 Aug 17:28:06 17:32:32 68° 258° (WSW) 17:37:00 437.375
CUTE-I 25 Aug 17:30:14 17:34:29 25° 65° (ENE) 17:38:44 437.470
LilacSat-2 25 Aug 17:31:11 17:33:38 16° 67° (ENE) 17:36:04 437.200
NOAA 15 25 Aug 17:38:45 17:43:32 37° 69° (ENE) 17:48:21 137.62
NOAA 18 25 Aug 17:49:14 17:54:10 35° 67° (ENE) 17:59:09 137.9125
STARS 25 Aug 17:51:08 17:55:30 61° 286° (WNW) 17:59:49 437.465
Cosmos 2491 25 Aug 17:53:07 18:00:35 34° 84° (E) 18:08:05 435.465 / 435.565
Cosmos 2504 25 Aug 18:02:47 18:08:19 23° 68° (ENE) 18:13:46 435.465 / 435.565
CUBESAT XI-V 25 Aug 18:09:56 18:14:38 68° 101° (E) 18:19:19 437.345
YUBILEINY 25 Aug 18:13:03 18:21:53 82° 82° (E) 18:30:36 435.215
GOMX 1 25 Aug 18:16:13 18:21:06 59° 73° (ENE) 18:26:20 467.674
BRITE-PL 25 Aug 18:28:30 18:33:03 49° 262° (W) 18:38:02 437.365/2234.400
DOVE 4 25 Aug 18:34:59 18:39:46 42° 71° (ENE) 18:44:44 437.250
Cubesat XI-IV 25 Aug 18:56:19 19:01:33 56° 259° (W) 19:06:49 437.490
BEESAT 2 25 Aug 18:59:14 19:02:14 20° 47° (NE) 19:05:14 435.950
LilacSat-2 25 Aug 19:04:08 19:07:39 33° 263° (W) 19:11:11 437.200
SEEDS 25 Aug 19:07:49 19:08:58 11° 63° (ENE) 19:10:06 437.485
CUTE-I 25 Aug 19:09:14 19:14:15 42° 261° (W) 19:19:18 437.470
NOAA 15 25 Aug 19:19:00 19:23:21 26° 265° (W) 19:27:46 137.62
BEESAT 3 25 Aug 19:21:32 19:25:28 59° 56° (NE) 19:29:23 437.485
CANX-2 25 Aug 19:21:54 19:25:24 26° 70° (ENE) 19:28:55 2200.000
CUTE 1.7 + AOD 2 25 Aug 19:28:27 19:31:58 27° 70° (ENE) 19:35:31 437.475
NOAA 18 25 Aug 19:29:57 19:34:48 31° 263° (W) 19:39:42 137.9125
HO-68 25 Aug 19:31:44 19:38:38 52° 67° (ENE) 19:45:32 435.675
CINEMA 3 25 Aug 19:32:47 19:37:34 46° 72° (ENE) 19:42:19 145.822/145.860
AAUSAT CUBESAT 2 25 Aug 19:44:16 19:46:41 15° 66° (ENE) 19:49:05 437.432
Cosmos 2491 25 Aug 19:48:37 19:57:01 52° 283° (WNW) 20:05:31 435.465 / 435.565
COMPASS 1 25 Aug 19:49:07 19:52:18 22° 68° (ENE) 19:55:29 437.405
CUBESAT XI-V 25 Aug 19:49:17 19:51:25 13° 297° (WNW) 19:53:34 437.345
Cosmos 2504 25 Aug 19:55:07 20:02:14 60° 268° (W) 20:09:14 435.465 / 435.565
GOMX 1 25 Aug 19:56:34 19:59:37 16° 271° (W) 20:02:49 467.674
CUBEBUG 2 25 Aug 20:07:00 20:11:03 29° 70° (ENE) 20:15:02 437.445
Oscar 11 25 Aug 20:07:32 20:09:05 12° 63° (ENE) 20:10:38 145.826/435.025
UWE-3 25 Aug 20:10:11 20:13:38 21° 67° (ENE) 20:17:01 435.000/436.395/437.385
STRAND 1 25 Aug 20:11:25 20:16:28 61° 101° (E) 20:21:31 437.568
FUNcube-1 25 Aug 20:11:27 20:13:23 13° 64° (ENE) 20:15:18 145.935
YUBILEINY 25 Aug 20:11:50 20:17:31 20° 282° (WNW) 20:23:12 435.215
DOVE 4 25 Aug 20:13:34 20:17:35 23° 268° (W) 20:21:44 437.250
ZACube-1 25 Aug 20:29:58 20:33:22 22° 68° (ENE) 20:36:43 437.345
AIST 1 25 Aug 20:36:21 20:40:28 37° 77° (ENE) 20:44:33
BEESAT 2 25 Aug 20:36:27 20:40:13 39° 244° (WSW) 20:43:56 435.950
SEEDS 25 Aug 20:39:59 20:44:06 64° 259° (W) 20:48:15 437.485
AIST 2 25 Aug 20:51:44 20:54:12 15° 43° (NE) 20:56:39 435.215
CANX-2 25 Aug 20:57:45 21:01:12 24° 265° (W) 21:04:40 2200.000
BEESAT 3 25 Aug 21:01:27 21:02:37 11° 252° (WSW) 21:03:47 437.485
CUTE 1.7 + AOD 2 25 Aug 21:04:21 21:07:46 24° 265° (W) 21:11:11 437.475
CINEMA 3 25 Aug 21:11:12 21:14:51 20° 267° (W) 21:18:31 145.822/145.860
AAUSAT CUBESAT 2 25 Aug 21:17:54 21:21:48 42° 262° (W) 21:25:43 437.432
HO-68 25 Aug 21:20:27 21:26:33 30° 264° (W) 21:32:43 435.675
PCSat 25 Aug 21:22:14 21:27:24 42° 55° (NE) 21:32:32 145.827
COMPASS 1 25 Aug 21:24:07 21:27:41 28° 264° (W) 21:31:18 437.405
HUMSAT D 25 Aug 21:35:56 21:39:09 22° 68° (ENE) 21:42:20 437.325/437.525
DELFI C3 25 Aug 21:40:23 21:44:10 49° 74° (ENE) 21:47:59 145.870
Oscar 11 25 Aug 21:40:24 21:44:40 64° 259° (W) 21:48:57 145.826/435.025
CUBEBUG 2 25 Aug 21:43:34 21:47:35 27° 264° (W) 21:51:33 437.445
FUNcube-1 25 Aug 21:44:40 21:49:07 62° 259° (W) 21:53:29 145.935
UWE-3 25 Aug 21:45:34 21:49:50 37° 262° (W) 21:54:03 435.000/436.395/437.385
STRAND 1 25 Aug 21:52:00 21:55:08 17° 298° (WNW) 21:58:16 437.568
PRISM 25 Aug 22:04:02 22:08:12 71° 285° (WNW) 22:12:22 437.425
AUBIESAT-1 25 Aug 22:04:23 22:07:54 22° 61° (ENE) 22:11:26 437.475
ZACube-1 25 Aug 22:05:20 22:09:26 34° 263° (W) 22:13:29 437.345
M-CUBED/EXP-1 PRIME 25 Aug 22:07:34 22:11:33 28° 63° (ENE) 22:15:33 437.505
AIST 1 25 Aug 22:14:51 22:17:44 17° 274° (W) 22:20:35
UNISAT 6 25 Aug 22:14:55 22:17:06 14° 91° (E) 22:19:15 437.425
GONETS M04 25 Aug 22:28:16 22:35:29 27° 68° (ENE) 22:42:39
AIST 2 25 Aug 22:28:57 22:33:06 65° 242° (WSW) 22:37:14 435.215
VELOX 1 25 Aug 22:47:20 22:49:25 13° 63° (ENE) 22:51:29 145.980
ANTELSAT 25 Aug 22:50:33 22:54:29 34° 97° (E) 22:58:21 437.575/2403.000
CUBEBUG 1 25 Aug 22:54:00 22:57:00 18° 66° (ENE) 23:00:02 437.445
PCSat 25 Aug 23:06:06 23:10:33 26° 252° (WSW) 23:14:58 145.827
Cosmos 2499 25 Aug 23:06:11 23:12:16 30° 72° (ENE) 23:18:21 435.465 / 435.565
50 SAT 25 Aug 23:08:16 23:10:36 17° 68° (ENE) 23:12:57 437.505
HUMSAT D 25 Aug 23:10:57 23:14:37 29° 264° (W) 23:18:15 437.325/437.525
DX 1 25 Aug 23:11:14 23:13:54 16° 64° (ENE) 23:16:36 434.975-435.025
ESTCUBE 1 25 Aug 23:16:22 23:20:38 48° 73° (ENE) 23:24:59 437.505/2401.250
DELFI C3 25 Aug 23:18:02 23:19:18 11° 269° (W) 23:20:32 145.870
TIGRISAT 25 Aug 23:21:53 23:26:12 76° 103° (ESE) 23:30:25 435.000
SPROUT 25 Aug 23:22:14 23:24:40 15° 64° (ENE) 23:27:06 437.525
POPSAT HIP 1 25 Aug 23:25:35 23:26:33 11° 90° (E) 23:27:32 437.405
AISAT 25 Aug 23:33:34 23:37:45 42° 71° (ENE) 23:41:59 437.250
AUBIESAT-1 25 Aug 23:37:41 23:42:02 42° 257° (WSW) 23:46:27 437.475
M-CUBED/EXP-1 PRIME 25 Aug 23:41:45 23:45:53 32° 259° (W) 23:50:07 437.505
UNISAT 6 25 Aug 23:49:57 23:54:06 48° 287° (WNW) 23:58:11 437.425
QB50P2 25 Aug 23:53:13 23:56:45 25° 96° (E) 00:00:14 145.880/145.840
DUCHIFAT 1 25 Aug 23:53:53 23:57:06 21° 94° (E) 00:00:17 145.980
UKube-1 25 Aug 23:54:17 23:58:12 35° 70° (ENE) 00:02:10 .
POLYITAN 1 25 Aug 23:55:45 23:59:17 25° 96° (E) 00:02:47 437.675
NANOSAT C BR1 26 Aug 00:06:12 00:09:58 31° 97° (E) 00:13:42 145.865
CUSAT 1 26 Aug 00:12:07 00:14:52 85° 279° (W) 00:18:11 437.405
VELOX 1 26 Aug 00:20:57 00:25:20 61° 259° (W) 00:29:46 145.980
GONETS M04 26 Aug 00:24:13 00:32:58 66° 268° (W) 00:41:41
SO-50 26 Aug 00:24:30 00:29:20 70° 119° (ESE) 00:34:09 436.795
O/OREOS (USA 219) 26 Aug 00:25:47 00:30:23 67° 67° (ENE) 00:34:57 437.305
ANTELSAT 26 Aug 00:27:51 00:30:57 20° 294° (WNW) 00:34:02 437.575/2403.000
CUBEBUG 1 26 Aug 00:28:50 00:32:58 40° 262° (W) 00:37:08 437.445
50 SAT 26 Aug 00:40:52 00:43:58 28° 263° (W) 00:47:05 437.505
RS-15 26 Aug 00:43:15 00:52:44 32° 103° (ESE) 01:02:34 29.354- 29.394
DX 1 26 Aug 00:45:30 00:49:42 47° 260° (W) 00:53:57 434.975-435.025
QB50P1 26 Aug 00:48:41 00:52:55 77° 284° (WNW) 00:57:06 145.935-145.965
DANDE 26 Aug 00:49:45 00:52:19 66° 99° (E) 00:54:58 436.750
ESTCUBE 1 26 Aug 00:55:07 00:57:43 15° 268° (W) 01:00:20 437.505/2401.250
SPROUT 26 Aug 00:56:00 01:00:10 49° 260° (W) 01:04:23 437.525
BUGSAT 1 26 Aug 00:57:09 01:01:10 46° 99° (E) 01:05:06 437.445
POPSAT HIP 1 26 Aug 00:58:33 01:02:43 60° 285° (WNW) 01:06:50 437.405
Cosmos 2499 26 Aug 00:58:55 01:05:31 44° 270° (W) 01:12:11 435.465 / 435.565
JAS-2 26 Aug 01:03:55 01:10:39 66° 102° (ESE) 01:18:07 435.910
AISAT 26 Aug 01:11:28 01:14:24 17° 267° (W) 01:17:22 437.250
TISAT 1 26 Aug 01:22:21 01:26:34 69° 75° (ENE) 01:30:49 437.305
QB50P2 26 Aug 01:28:58 01:32:28 26° 291° (WNW) 01:35:56 145.880/145.840
DUCHIFAT 1 26 Aug 01:29:07 01:32:48 30° 290° (WNW) 01:36:28 145.980
UKube-1 26 Aug 01:31:13 01:34:21 19° 266° (W) 01:37:29 .
POLYITAN 1 26 Aug 01:31:31 01:34:59 25° 291° (WNW) 01:38:26 437.675
SWISSCUBE 26 Aug 01:33:29 01:36:59 21° 65° (ENE) 01:40:29 437.505
NANOSAT C BR1 26 Aug 01:42:20 01:45:30 21° 293° (WNW) 01:48:39 145.865
BEESAT 26 Aug 01:50:16 01:54:15 27° 67° (ENE) 01:58:14 436.000
SO-50 26 Aug 02:06:59 02:10:18 18° 317° (NW) 02:13:36 436.795
O/OREOS (USA 219) 26 Aug 02:07:44 02:09:09 11° 263° (W) 02:10:33 437.305
Oscar 19 26 Aug 02:10:26 02:15:30 49° 100° (E) 02:20:31 437.125/150
GONETS M04 26 Aug 02:26:09 02:27:56 11° 287° (WNW) 02:29:43
PHONESAT 2.4 26 Aug 02:30:10 02:32:30 20° 152° (SSE) 02:34:49 2401.200-2431.200
BUGSAT 1 26 Aug 02:33:52 02:36:07 14° 296° (WNW) 02:38:22 437.445
ITUPSAT 1 26 Aug 02:35:27 02:40:12 77° 76° (ENE) 02:44:58 437.325
JAS-2 26 Aug 02:50:04 02:55:15 24° 296° (WNW) 03:00:49 435.910
RS-15 26 Aug 02:52:31 03:04:03 73° 305° (NW) 03:16:17 29.354- 29.394
Gurwin Techsat 1B 26 Aug 03:04:55 03:10:15 74° 102° (ESE) 03:15:34 435.225
AO-7 26 Aug 03:07:27 03:11:42 15° 89° (E) 03:15:55 29.400- 29.500
SWISSCUBE 26 Aug 03:10:00 03:14:28 41° 261° (W) 03:18:58 437.505
STARS 26 Aug 03:14:21 03:15:20 11° 61° (ENE) 03:16:20 437.465
ITAMSAT 1 26 Aug 03:20:36 03:25:09 30° 97° (E) 03:29:40 435.822/435.867
BEESAT 26 Aug 03:27:44 03:31:55 30° 263° (W) 03:36:07 436.000
Oscar 19 26 Aug 03:50:39 03:54:26 21° 296° (WNW) 03:58:11 437.125/150
MOZHAYETS 4 26 Aug 03:57:24 04:01:58 79° 75° (ENE) 04:06:32
Cosmos 2491 26 Aug 04:04:49 04:09:44 16° 60° (ENE) 04:14:37 435.465 / 435.565
KKS-1 26 Aug 04:05:29 04:09:57 78° 76° (ENE) 04:14:28 437.445
PHONESAT 2.4 26 Aug 04:05:35 04:08:35 75° 166° (SSE) 04:11:34 2401.200-2431.200
ITUPSAT 1 26 Aug 04:17:56 04:18:33 10° 271° (W) 04:19:10 437.325
Gurwin Techsat 1B 26 Aug 04:46:42 04:49:33 15° 299° (WNW) 04:52:23 435.225
